Location: Kernascl�den
(48.0062°N, 3.3198°W)
Time: 22:34:15
(UTC+00:00)

Cosmos 1626 - Pass Details

Date: 21 January 2021
Orbit: 490 x 493 km, 82.5° (Epoch: 03 March)

Event Time Altitude Azimuth Distance (km) Brightness Sun altitude
Rises 17:48:51 0° 202° (SSW) 2,565 6.4 -8.8°
Reaches altitude 10° 17:51:00 10° 209° (SSW) 1,687 5.6 -9.1°
Maximum altitude 17:54:34 46° 283° (WNW) 675 3.2 -9.7°
Drops below altitude 10° 17:58:10 10° 358° (N) 1,700 4.7 -10.3°
Sets 18:00:21 0° 5° (N) 2,587 5.5 -10.6°
